Flag for Germany Weather past 2 weeks in Ettlingen, Baden-Württemberg, Germany

Now
46 °F

Clear.


Feels Like: 45 °F
Forecast: 40 / 57 °F
Wind: 3 mph from West

Location: Karlsruhe - Baden Wurttemberg

Current Time: Mar 27, 2015 at 8:47:31 PM

Latest Report: Mar 27, 2015 at 8:20 PM


Visibility: 10 mi

Pressure: 30.21 "Hg

Humidity: 50%

Dew point: 28 °F

Location of EttlingenLocation

Historic Weather in Ettlingen — Graph

°F

Ettlingen temperature yesterday

Maximum temperature yesterday: 48 °F (at 1:50 PM)
Minimum temperature yesterday: 41 °F (at 5:20 AM)
Average temperature yesterday: 45 °F

Past Weeks' High & Low Weather Summary

 TemperatureHumidityPressure
High64 °F (Mar 18, 2:50 PM)100% (Mar 18, 7:50 AM)30.30 "Hg (Mar 18, 7:50 AM)
Low30 °F (Mar 24, 5:20 AM)34% (Mar 18, 2:50 PM)29.62 "Hg (Mar 25, 5:20 AM)
Average46 °F65%30.07 "Hg
* Reported Mar 12 7:20 PM — Mar 27 7:50 PM, Ettlingen, Weather by CustomWeather, © 2015

Note: Actual official high and low records may vary slightly from our data, if they occured in-between our weather recording intervals... More about our weather records

Advertising

Ettlingen weather history for previous 24 hours

 ConditionsComfort  
Time TempWeatherWind HumidityBarometerVisibility
7:50 PM
Fri, Mar 27
48 °FClear.3 mph46%30.21 "Hg10 mi
7:20 PM48 °FPassing clouds.5 mph46%30.21 "HgN/A
6:50 PM50 °FPassing clouds.6 mph40%30.18 "HgN/A
6:20 PM52 °FPartly sunny.8 mph38%30.18 "HgN/A
5:50 PM52 °FPartly sunny.10 mph41%30.15 "HgN/A
5:20 PM54 °FPartly sunny.7 mph38%30.15 "HgN/A
4:50 PM52 °FPartly sunny.8 mph41%30.15 "HgN/A
4:20 PM52 °FPassing clouds.8 mph41%30.12 "HgN/A
3:50 PM54 °FPassing clouds.8 mph38%30.12 "HgN/A
3:20 PM52 °FSunny.10 mph41%30.12 "Hg10 mi
2:50 PM54 °FScattered clouds.9 mph41%30.12 "HgN/A
2:20 PM52 °FScattered clouds.8 mph41%30.12 "HgN/A
1:50 PM52 °FScattered clouds.10 mph41%30.12 "HgN/A
1:20 PM52 °FScattered clouds.13 mph41%30.12 "HgN/A
12:50 PM52 °FScattered clouds.12 mph47%30.12 "HgN/A
12:20 PM50 °FScattered clouds.10 mph47%30.12 "HgN/A
11:50 AM52 °FScattered clouds.13 mph47%30.09 "HgN/A
11:20 AM50 °FScattered clouds.12 mph50%30.09 "HgN/A
10:50 AM50 °FScattered clouds.10 mph54%30.09 "HgN/A
10:20 AM48 °FScattered clouds.12 mph58%30.09 "HgN/A
9:50 AM48 °FScattered clouds.13 mph58%30.09 "HgN/A
9:20 AM46 °FScattered clouds.10 mph71%30.09 "HgN/A
8:50 AM46 °FScattered clouds.9 mph76%30.07 "Hg6 mi
8:20 AM45 °FScattered clouds.8 mph81%30.07 "Hg6 mi
7:50 AM43 °FScattered clouds.9 mph87%30.04 "HgN/A
7:20 AM41 °FScattered clouds.7 mph87%30.04 "HgN/A
6:50 AM41 °FPartly sunny.7 mph87%30.04 "HgN/A
6:20 AM43 °FPartly sunny.9 mph87%30.01 "HgN/A
5:50 AM43 °FPassing clouds.8 mph87%30.01 "HgN/A
5:20 AM43 °FPassing clouds.7 mph87%29.98 "HgN/A
4:50 AM43 °FPassing clouds.12 mph87%29.98 "HgN/A
3:50 AM43 °FPassing clouds.9 mph87%29.95 "HgN/A
2:50 AM43 °FPassing clouds.6 mph87%29.95 "Hg5 mi
11:50 PM
Thu, Mar 26
43 °FLight rain. Passing clouds.13 mph87%29.92 "Hg5 mi
11:20 PM43 °FRain. Passing clouds.12 mph87%29.89 "Hg4 mi
10:50 PM43 °FRain. Passing clouds.12 mph87%29.89 "Hg4 mi
10:20 PM43 °FRain. Passing clouds.10 mph87%29.89 "Hg4 mi
9:50 PM43 °FLight rain. Passing clouds.10 mph81%29.89 "Hg6 mi
9:20 PM43 °FLight rain. Passing clouds.9 mph81%29.89 "HgN/A
8:50 PM43 °FScattered showers. Passing clouds.8 mph81%29.86 "HgN/A
8:20 PM43 °FLight rain. Passing clouds.9 mph81%29.86 "Hg5 mi
Weather by CustomWeather, © 2015

See weather overviewHow to use our weather pages